DW7076 Floda SE current weather conditions

sailwx.info

Wind from 239 at 2 knots gusting 10

Air temperature 6.1° C
Dewpoint 4.8° C

Last reported at 2014-Dec-22 17:56 UTC.
Time now 2014-Dec-22 18:28 UTC

Location: N 57°49' E 012°21'.
View on Google Maps.

See reports from other nearby stations

  
Tides and Currents Weather Stations Pressure Air Temp Water Temp Dewpoint Dewpoint Depression Visibility Wind Speed Wind Dir Waves Ship Positions
date/time (UTC)wind fromknots sea level pressurealtimeterstation pressurevisibilityair tempwater tempwave heightnotes
2014-Dec-22 17:56 239 2 gusting 10 6.1
2014-Dec-22 17:46 327 2 gusting 13 6.1
2014-Dec-22 17:36 220 1 gusting 7 6.1
2014-Dec-22 17:26 343 3 gusting 10 6.1
2014-Dec-22 17:16 280 1 gusting 7 5.6
2014-Dec-22 17:06 300 3 gusting 7 5.6
2014-Dec-22 16:56 175 1 gusting 7 5.6
2014-Dec-22 16:46 227 0 gusting 8 5.6
2014-Dec-22 16:36 322 2 gusting 8 5.6
2014-Dec-22 16:26 280 1 gusting 10 5.6
2014-Dec-22 16:16 281 3 gusting 12 5.6
2014-Dec-22 16:06 317 4 gusting 12 6.1
2014-Dec-22 15:56 270 3 gusting 10 6.1
2014-Dec-22 15:46 267 2 gusting 12 6.1
2014-Dec-22 15:36 309 3 gusting 10 6.1
2014-Dec-22 15:26 016 1 gusting 5 6.1
2014-Dec-22 15:16 226 4 gusting 12 5.6
2014-Dec-22 15:06 030 2 gusting 10 5.6
2014-Dec-22 14:56 326 1 gusting 6 5.6
2014-Dec-22 14:46 278 1 gusting 6 5.6
2014-Dec-22 14:36 315 1 gusting 5 5.6
2014-Dec-22 14:26 031 1 gusting 7 5.6
2014-Dec-22 14:16 305 0 gusting 4 5.6
2014-Dec-22 14:06 286 0 gusting 5 5.6
2014-Dec-22 13:56 347 0 gusting 7 5.6
2014-Dec-22 13:46 324 5.6
2014-Dec-22 13:36 355 1 gusting 5 6.1
2014-Dec-22 13:26 264 3 gusting 8 6.1
2014-Dec-22 13:16 244 3 gusting 6 6.1
2014-Dec-22 13:06 221 3 gusting 6 6.7
2014-Dec-22 12:56 217 2 gusting 11 6.7
2014-Dec-22 12:46 244 3 gusting 8 6.7
2014-Dec-22 12:36 344 2 gusting 6 6.7
2014-Dec-22 12:26 234 1 gusting 10 6.7
2014-Dec-22 12:16 309 0 gusting 6 6.7
2014-Dec-22 12:06 283 0 gusting 8 6.7
2014-Dec-22 11:56 299 0 gusting 6 6.7
2014-Dec-22 11:46 182 0 gusting 5 6.7
2014-Dec-22 11:36 276 1 gusting 7 6.7
2014-Dec-22 11:26 231 3 gusting 11 6.7
2014-Dec-22 11:16 178 0 gusting 10 6.7
2014-Dec-22 11:06 277 3 gusting 10 6.7
2014-Dec-22 10:56 106 1 gusting 6 7.2
2014-Dec-22 10:46 003 1 gusting 8 7.2
2014-Dec-22 10:36 297 2 gusting 8 6.7
2014-Dec-22 10:26 268 4 gusting 8 6.7
2014-Dec-22 10:16 312 3 gusting 6 6.7
2014-Dec-22 10:06 345 2 gusting 7 6.7
2014-Dec-22 09:56 306 0 gusting 6 7.2
2014-Dec-22 09:46 324 2 gusting 10 7.2
2014-Dec-22 09:36 344 2 gusting 10 7.2
2014-Dec-22 09:26 230 2 gusting 13 7.2
2014-Dec-22 09:16 036 2 gusting 11 7.2
2014-Dec-22 09:06 166 2 gusting 8 7.2
2014-Dec-22 08:56 256 2 gusting 8 7.2
2014-Dec-22 08:46 295 1 gusting 11 7.2
2014-Dec-22 08:36 349 4 gusting 13 7.2
2014-Dec-22 08:26 309 4 gusting 19 7.2
2014-Dec-22 08:16 255 4 gusting 13 7.2
2014-Dec-22 08:06 279 6 gusting 19 7.2
2014-Dec-22 07:56 270 6 gusting 14 7.2
2014-Dec-22 07:46 017 4 gusting 13 7.2
2014-Dec-22 07:36 301 6 gusting 15 7.2
2014-Dec-22 07:26 227 3 gusting 12 7.2
2014-Dec-22 07:16 280 2 gusting 8 7.2
2014-Dec-22 07:06 244 5 gusting 14 7.2
2014-Dec-22 06:56 113 6 gusting 14 7.2
2014-Dec-22 06:46 243 4 gusting 13 7.2
2014-Dec-22 06:36 309 4 gusting 10 7.2
2014-Dec-22 06:26 296 1 gusting 10 7.2
2014-Dec-22 06:16 296 1 gusting 10 7.2
2014-Dec-22 06:06 085 2 gusting 13 7.2
2014-Dec-22 05:56 242 4 gusting 17 7.2
2014-Dec-22 05:46 255 5 gusting 10 7.2
2014-Dec-22 05:36 322 2 gusting 12 7.2
2014-Dec-22 05:26 213 2 gusting 12 7.2
2014-Dec-22 05:16 323 1 gusting 11 7.2
2014-Dec-22 05:06 246 2 gusting 12 7.2
2014-Dec-22 04:56 298 5 gusting 13 7.2
2014-Dec-22 04:46 292 3 gusting 12 7.2
2014-Dec-22 04:36 342 1 gusting 10 7.2
2014-Dec-22 04:26 334 2 gusting 10 7.2
2014-Dec-22 04:16 150 2 gusting 15 7.2
2014-Dec-22 04:06 131 1 gusting 11 7.2
2014-Dec-22 03:56 037 1 gusting 11 7.2
2014-Dec-22 03:46 269 3 gusting 11 7.2
2014-Dec-22 03:36 261 2 gusting 10 7.2
2014-Dec-22 03:26 229 5 gusting 10 7.2
2014-Dec-22 03:16 260 4 gusting 14 7.2
2014-Dec-22 03:06 014 2 gusting 8 7.2
2014-Dec-22 02:56 294 2 gusting 7 6.7
2014-Dec-22 02:46 135 0 gusting 7 6.7
2014-Dec-22 02:36 332 1 gusting 8 6.7
2014-Dec-22 02:26 212 2 gusting 11 6.7
2014-Dec-22 02:16 210 2 gusting 10 6.7
2014-Dec-22 02:06 190 2 gusting 6 6.7
2014-Dec-22 01:56 228 2 gusting 5 6.7
2014-Dec-22 01:46 117 0 gusting 6 6.7
2014-Dec-22 01:36 160 1 gusting 6 6.7
2014-Dec-22 01:26 295 1 gusting 10 6.7
2014-Dec-22 01:16 303 3 gusting 10 6.7
2014-Dec-22 01:06 150 1 gusting 10 6.7
2014-Dec-22 00:56 239 4 gusting 10 6.7
2014-Dec-22 00:46 213 2 gusting 10 6.7
2014-Dec-22 00:36 123 1 gusting 8 6.7
2014-Dec-22 00:26 155 1 gusting 5 6.7
2014-Dec-22 00:16 215 0 gusting 5 6.7
2014-Dec-22 00:06 255 2 gusting 6 6.7
2014-Dec-21 23:56 250 1 gusting 10 6.7
2014-Dec-21 23:46 210 2 gusting 8 6.7
2014-Dec-21 23:36 221 1 gusting 10 6.1
2014-Dec-21 23:26 157 2 gusting 8 6.1
2014-Dec-21 23:16 177 0 gusting 7 6.1
2014-Dec-21 22:56 251 0 gusting 6 6.1
2014-Dec-21 22:46 250 1 gusting 8 6.1
2014-Dec-21 22:36 136 0 gusting 6 5.6
2014-Dec-21 22:26 247 1 gusting 6 5.6
2014-Dec-21 22:16 153 0 gusting 5 5.6
2014-Dec-21 22:06 190 2 gusting 6 5.6
2014-Dec-21 21:56 230 2 gusting 6 5.6
2014-Dec-21 21:46 208 2 gusting 4 5.6
2014-Dec-21 21:36 154 2 gusting 6 5.6
2014-Dec-21 21:26 124 0 gusting 6 5.6
2014-Dec-21 21:16 204 0 gusting 10 5.6
2014-Dec-21 21:06 213 1 gusting 6 5.6
2014-Dec-21 20:56 036 0 gusting 5 5.0
2014-Dec-21 20:46 140 0 gusting 10 5.0
2014-Dec-21 20:36 261 1 gusting 6 5.0
2014-Dec-21 20:26 214 1 gusting 5 5.0
2014-Dec-21 20:16 139 0 gusting 7 5.0
2014-Dec-21 20:06 172 0 gusting 6 5.0
2014-Dec-21 19:56 148 1 gusting 6 5.0
2014-Dec-21 19:46 135 2 gusting 7 5.0
2014-Dec-21 19:36 156 0 gusting 6 4.4
2014-Dec-21 19:26 166 2 gusting 4 4.4
2014-Dec-21 19:16 140 0 gusting 5 4.4
2014-Dec-21 19:06 182 1 gusting 2 4.4
2014-Dec-21 18:56 187 1 gusting 5 3.9
2014-Dec-21 18:46 089 3.9
2014-Dec-21 18:36 194 0 gusting 5 3.9
2014-Dec-21 18:26 132 0 gusting 7 3.9
2014-Dec-21 18:16 175 3.3
2014-Dec-21 18:06 239 0 gusting 6 3.3
2014-Dec-21 17:46 187 2.8
2014-Dec-21 17:26 187 2.2
2014-Dec-21 17:16 187 2.2
2014-Dec-21 17:06 187 2.2
2014-Dec-21 16:56 187 2.2
2014-Dec-21 16:46 187 2.2
2014-Dec-21 16:36 192 0 gusting 2 2.2
2014-Dec-21 16:26 199 2.2
2014-Dec-21 16:16 194 0 gusting 2 2.2
2014-Dec-21 16:06 135 1.7
2014-Dec-21 15:56 135 1.7
2014-Dec-21 15:46 196 1.7
2014-Dec-21 15:36 136 1.1
2014-Dec-21 15:26 089 1.1
2014-Dec-21 15:16 089 1.1
2014-Dec-21 15:06 089 1.1
2014-Dec-21 14:56 189 1.1
2014-Dec-21 14:46 189 1.1
2014-Dec-21 14:36 202 1.1
2014-Dec-21 14:26 202 1.1
2014-Dec-21 14:16 202 1.1
2014-Dec-21 14:06 202 1.1
2014-Dec-21 13:56 202 1.1
2014-Dec-21 13:46 202 1.1
2014-Dec-21 13:36 202 1.1
2014-Dec-21 13:26 202 1.1
2014-Dec-21 13:16 202 1.1
2014-Dec-21 13:06 178 0 gusting 4 0.6
2014-Dec-21 12:56 358 0.6
2014-Dec-21 12:46 325 -0.0
2014-Dec-21 12:36 325 0 gusting 1 -0.0
2014-Dec-21 12:26 325 -0.0
2014-Dec-21 12:16 244 -0.0
2014-Dec-21 12:06 244 -0.0
2014-Dec-21 11:56 244 -0.0
2014-Dec-21 11:46 244 -0.6
2014-Dec-21 11:36 244 -0.6
2014-Dec-21 11:26 244 0 gusting 1 -0.6
2014-Dec-21 11:16 244 -0.6
2014-Dec-21 11:06 244 -0.6
2014-Dec-21 10:56 244 -0.6
2014-Dec-21 10:46 244 -0.6
2014-Dec-21 10:36 244 -0.6
2014-Dec-21 10:26 244 -0.6
2014-Dec-21 10:16 244 -1.1
2014-Dec-21 10:06 244 -1.1
2014-Dec-21 09:56 244 0 gusting 1 -1.1
2014-Dec-21 09:46 244 -1.1
2014-Dec-21 09:36 244 0 gusting 2 -1.1
2014-Dec-21 09:26 244 0 gusting 2 -1.1
2014-Dec-21 09:16 244 1 gusting 2 -1.1
2014-Dec-21 09:06 244 0 gusting 2 -1.1
2014-Dec-21 08:56 244 -1.1
2014-Dec-21 08:46 244 -1.1
2014-Dec-21 08:36 244 0 gusting 1 -1.7
2014-Dec-21 08:26 244 0 gusting 2 -1.7
2014-Dec-21 08:16 244 1 gusting 2 -1.7
2014-Dec-21 08:06 244 1 gusting 2 -1.7
2014-Dec-21 07:56 244 1 gusting 2 -1.7
2014-Dec-21 07:46 244 1 gusting 2 -1.1
2014-Dec-21 07:36 244 1 gusting 2 -1.1
2014-Dec-21 07:26 244 1 gusting 2 -1.1
2014-Dec-21 07:16 244 1 gusting 2 -1.1
2014-Dec-21 07:06 269 1 gusting 2 -1.7
2014-Dec-21 06:56 265 0 gusting 1 -1.7
2014-Dec-21 06:46 265 0 gusting 2 -1.7
2014-Dec-21 06:36 265 0 gusting 2 -1.7
2014-Dec-21 06:26 265 0 gusting 2 -1.7
2014-Dec-21 06:16 265 0 gusting 2 -1.7
2014-Dec-21 06:06 265 0 gusting 2 -1.7
2014-Dec-21 05:56 265 1 gusting 2 -1.7
2014-Dec-21 05:46 265 0 gusting 2 -1.7
2014-Dec-21 05:36 265 0 gusting 2 -1.7
2014-Dec-21 05:26 265 0 gusting 2 -1.7
2014-Dec-21 05:06 265 0 gusting 2 -1.7
2014-Dec-21 04:56 265 0 gusting 2 -1.7
2014-Dec-21 04:46 265 0 gusting 1 -1.7
2014-Dec-21 04:36 265 0 gusting 2 -1.7
2014-Dec-21 04:26 265 0 gusting 1 -1.7
2014-Dec-21 04:16 265 0 gusting 2 -1.7
2014-Dec-21 04:06 265 0 gusting 2 -2.2
2014-Dec-21 03:56 265 0 gusting 2 -2.2
2014-Dec-21 03:46 265 -2.2
2014-Dec-21 03:36 265 -2.2
2014-Dec-21 03:26 265 -2.2
2014-Dec-21 03:16 265 0 gusting 2 -2.2
2014-Dec-21 03:06 265 0 gusting 1 -2.2
2014-Dec-21 02:56 265 -2.2
2014-Dec-21 02:46 265 -2.2
2014-Dec-21 02:36 265 -2.2
2014-Dec-21 02:26 265 -2.2
2014-Dec-21 02:16 265 -2.2
2014-Dec-21 02:06 265 -2.2
2014-Dec-21 01:56 265 -2.2
2014-Dec-21 01:46 265 -2.2
2014-Dec-21 01:36 265 -2.2
2014-Dec-21 01:26 265 -2.2
2014-Dec-21 01:16 265 -2.2
2014-Dec-21 01:06 265 0 gusting 1 -2.2
2014-Dec-21 00:56 265 -1.7
2014-Dec-21 00:46 265 -1.7
2014-Dec-21 00:36 265 0 gusting 1 -1.7
2014-Dec-21 00:26 265 -1.7
2014-Dec-21 00:16 265 -1.7
2014-Dec-21 00:06 266 -1.7
2014-Dec-20 23:56 266 -1.7
2014-Dec-20 23:46 254 0 gusting 2 -1.7
2014-Dec-20 23:36 243 0 gusting 2 -1.7
2014-Dec-20 23:26 241 -1.7
2014-Dec-20 23:16 249 -1.7
2014-Dec-20 23:06 268 -1.7
2014-Dec-20 22:56 268 0 gusting 2 -1.7
2014-Dec-20 22:46 268 0 gusting 2 -1.7
2014-Dec-20 22:36 268 -1.7
2014-Dec-20 22:26 268 0 gusting 2 -1.7
2014-Dec-20 22:16 268 0 gusting 2 -1.7
2014-Dec-20 22:06 268 -1.7
2014-Dec-20 21:56 268 0 gusting 1 -1.7
2014-Dec-20 21:46 253 0 gusting 1 -1.7
2014-Dec-20 21:36 252 -1.7
2014-Dec-20 21:26 261 0 gusting 2 -1.7
2014-Dec-20 21:16 328 -1.7
2014-Dec-20 21:06 330 -1.7
2014-Dec-20 20:56 330 -1.7
2014-Dec-20 20:46 330 0 gusting 1 -1.7
2014-Dec-20 20:36 330 0 gusting 1 -1.7
2014-Dec-20 20:26 330 0 gusting 1 -1.7
2014-Dec-20 20:16 330 -1.7
2014-Dec-20 20:06 330 -1.7
2014-Dec-20 19:56 330 -1.1
2014-Dec-20 19:46 330 -1.1
2014-Dec-20 19:36 330 -1.1
2014-Dec-20 19:26 330 -1.1
2014-Dec-20 19:16 330 -1.1
2014-Dec-20 19:06 330 -1.1
2014-Dec-20 18:56 330 0 gusting 1 -1.1
2014-Dec-20 18:46 330 0 gusting 2 -0.6
2014-Dec-20 18:36 330 -0.6
2014-Dec-20 18:26 330 0 gusting 1 -0.6
2014-Dec-20 18:16 330 -0.0
2014-Dec-20 18:06 330 -0.0